Weather History for KBEH - January, 2014

Change the Weather History Date:

Monday, January 27, 2014

  Actual Average (KSBN) Record (KSBN)
Temperature  
Mean Temperature 8 °F 24 °F  
Max Temperature 15 °F 31 °F 60 °F (1916)
Min Temperature 1 °F 18 °F -9 °F (1963)
Degree Days  
Heating Degree Days 57 41  
Month to date heating degree days 1099  
Since 1 July heating degree days 3490  
Cooling Degree Days 0 0  
Month to date cooling degree days 0  
Year to date cooling degree days 0  
Moisture  
Dew Point 0 °F    
Average Humidity 77    
Maximum Humidity 92    
Minimum Humidity 66    
Precipitation  
Precipitation 0.00 in 0.06 in 0.62 in (1967)
Month to date precipitation 2.03  
Year to date precipitation 2.03  
Snow  
Snow 0.00 in 0.70 in 9.70 in (2004)
Month to date snowfall 17.9  
Since 1 July snowfall 40.4  
Snow Depth -    
Sea Level Pressure  
Sea Level Pressure 30.10 in    
Wind  
Wind Speed 19 mph (WNW)    
Max Wind Speed 26 mph    
Max Gust Speed 39 mph    
Visibility 1 miles    
Events Fog , Snow    
T = Trace of Precipitation, MM = Missing Value Source: NWS Daily Summary

Daily Weather History Graph

Daily Weather History Graph

Search for Another Location

Airport or City:

Trip Planner

Search our weather history database for the weather conditions in past years. The results will help you decide how hot, cold, wet, or windy it might be!

Date:

Astronomy

Jan. 27, 2014 Rise Set
Actual Time 8:03 AM EST 5:53 PM EST
Civil Twilight 7:33 AM EST 6:23 PM EST
Nautical Twilight 6:59 AM EST 6:57 PM EST
Astronomical Twilight 6:26 AM EST 7:30 PM EST
Moon 4:45 AM EST (1/27) 2:38 PM EST (1/27)
Length of Visible Light 10h 50m
Length of Day
9h 50m
Waning Crescent, 15% of the Moon is Illuminated
Jan 27
Waning Crescent
Jan 30
New
Feb 6
First Quarter
Feb 14
Full
Feb 22
Last Quarter

Hourly Weather History & Observations

Time (EST) Temp. Windchill Dew Point Humidity Pressure Visibility Wind Dir Wind Speed Gust Speed Precip Events Conditions
12:43 AM 15.8 °F -1.9 °F 8.6 °F 73% 29.65 in 1.5 mi WNW 21.9 mph 35.7 mph 0.00 in Snow Light Snow
12:45 AM 15.8 °F -3.4 °F 8.6 °F 73% 29.65 in 1.2 mi WNW 26.5 mph 36.8 mph 0.00 in Snow Light Snow
12:49 AM 14.0 °F -3.9 °F 10.4 °F 86% 29.65 in 0.5 mi WNW 20.7 mph 36.8 mph 0.00 in Fog , Snow Light Snow
12:53 AM 14.0 °F -5.8 °F 10.0 °F 84% 29.70 in 0.5 mi WNW 26.5 mph 36.8 mph 0.00 in Fog , Snow Light Snow
1:02 AM 14.0 °F -3.4 °F 6.8 °F 73% 29.67 in 1.0 mi WNW 19.6 mph 35.7 mph 0.00 in Snow Light Snow
1:07 AM 14.0 °F -5.8 °F 5.0 °F 67% 29.67 in 2.0 mi WNW 26.5 mph 33.4 mph 0.00 in   Overcast
1:14 AM 14.0 °F -4.7 °F 6.8 °F 73% 29.68 in 1.2 mi WNW 23.0 mph 33.4 mph 0.00 in Snow Light Snow
1:21 AM 12.2 °F -6.3 °F 8.6 °F 85% 29.69 in 0.5 mi WNW 20.7 mph 33.4 mph 0.00 in Snow Snow
1:38 AM 12.2 °F -6.3 °F 6.8 °F 79% 29.70 in 1.0 mi WNW 20.7 mph 39.1 mph 0.00 in Snow Light Snow
1:48 AM 12.2 °F -7.5 °F 6.8 °F 79% 29.71 in 0.5 mi WNW 24.2 mph 36.8 mph 0.00 in Snow Snow
1:53 AM 12.0 °F -6.9 °F 9.0 °F 88% 29.75 in 0.2 mi WNW 21.9 mph 36.8 mph 0.00 in Fog , Snow Snow
2:11 AM 12.2 °F -6.3 °F 5.0 °F 73% 29.74 in 1.0 mi WNW 20.7 mph 34.5 mph 0.00 in Snow Light Snow
2:17 AM 10.4 °F -9.5 °F 6.8 °F 85% 29.74 in 0.5 mi WNW 23.0 mph 35.7 mph 0.00 in Snow Snow
2:36 AM 10.4 °F -8.2 °F 6.8 °F 85% 29.77 in 0.8 mi WNW 19.6 mph 36.8 mph 0.00 in Snow Light Snow
2:53 AM 10.9 °F -9.9 °F 6.1 °F 81% 29.82 in 0.5 mi WNW 26.5 mph 34.5 mph 0.00 in Snow Snow
3:28 AM 10.4 °F -9.1 °F 6.8 °F 85% 29.81 in 1.0 mi WNW 21.9 mph 29.9 mph 0.00 in Snow Light Snow
3:53 AM 10.9 °F -7.9 °F 3.0 °F 70% 29.87 in 1.2 mi WNW 20.7 mph 29.9 mph 0.00 in Snow Light Snow
4:00 AM 10.4 °F -7.7 °F 3.2 °F 73% 29.84 in 1.5 mi WNW 18.4 mph 31.1 mph 0.00 in Snow Light Snow
4:08 AM 10.4 °F -8.6 °F 3.2 °F 73% 29.86 in 0.8 mi WNW 20.7 mph 28.8 mph 0.00 in Snow Light Snow
4:18 AM 10.4 °F -8.2 °F 3.2 °F 73% 29.87 in 1.2 mi WNW 19.6 mph 29.9 mph 0.00 in Snow Light Snow
4:38 AM 10.4 °F -8.6 °F 6.8 °F 85% 29.88 in 0.8 mi WNW 20.7 mph 36.8 mph 0.00 in Snow Light Snow
4:45 AM 10.4 °F -8.2 °F 6.8 °F 85% 29.89 in 0.2 mi WNW 19.6 mph 36.8 mph 0.00 in Fog , Snow Light Snow
4:53 AM 10.0 °F -7.1 °F 6.1 °F 84% 29.93 in 0.5 mi WNW 16.1 mph 31.1 mph 0.00 in Fog , Snow Light Snow
5:02 AM 10.4 °F -8.6 °F 5.0 °F 79% 29.90 in 0.8 mi WNW 20.7 mph 31.1 mph 0.00 in Snow Light Snow
5:24 AM 8.6 °F -10.0 °F 5.0 °F 85% 29.93 in 1.2 mi West 18.4 mph 26.5 mph 0.00 in Snow Light Snow
5:28 AM 10.4 °F -8.2 °F 3.2 °F 73% 29.93 in 1.5 mi WNW 19.6 mph 27.6 mph 0.00 in Snow Light Snow
5:47 AM 8.6 °F -9.5 °F 1.4 °F 73% 29.94 in 2.0 mi WNW 17.3 mph 25.3 mph 0.00 in Snow Light Snow
5:53 AM 9.0 °F -8.5 °F 1.9 °F 73% 29.99 in 1.2 mi WNW 16.1 mph 26.5 mph 0.00 in Snow Light Snow
5:57 AM 8.6 °F -8.3 °F 3.2 °F 79% 29.95 in 0.5 mi WNW 15.0 mph 26.5 mph 0.00 in Snow Snow
6:09 AM 8.6 °F -8.3 °F 3.2 °F 79% 29.96 in 1.0 mi WNW 15.0 mph 24.2 mph 0.00 in Snow Light Snow
6:23 AM 8.6 °F -8.9 °F 3.2 °F 79% 29.98 in 0.8 mi WNW 16.1 mph 28.8 mph 0.00 in Snow Light Snow
6:32 AM 8.6 °F -9.5 °F 1.4 °F 73% 29.98 in 1.0 mi WNW 17.3 mph 28.8 mph 0.00 in Snow Light Snow
6:38 AM 8.6 °F -5.5 °F 3.2 °F 79% 29.99 in 0.5 mi WNW 10.4 mph 26.5 mph 0.00 in Fog , Snow Light Snow
6:44 AM 8.6 °F -7.7 °F 3.2 °F 79% 29.99 in 1.0 mi WNW 13.8 mph 28.8 mph 0.00 in Snow Light Snow
6:49 AM 8.6 °F -8.3 °F 3.2 °F 79% 30.00 in 0.5 mi WNW 15.0 mph 28.8 mph 0.00 in Snow Snow
6:53 AM 8.1 °F -9.6 °F 3.9 °F 83% 30.04 in 0.5 mi WNW 16.1 mph 26.5 mph 0.00 in Fog , Snow Light Snow
7:00 AM 8.6 °F -9.5 °F 3.2 °F 79% 30.01 in 1.0 mi WNW 17.3 mph 25.3 mph 0.00 in Snow Light Snow
7:14 AM 8.6 °F -9.5 °F 3.2 °F 79% 30.02 in 0.5 mi WNW 17.3 mph 27.6 mph 0.00 in Snow Snow
7:32 AM 6.8 °F -9.3 °F 3.2 °F 85% 30.02 in 1.0 mi WNW 12.7 mph 23.0 mph 0.00 in Snow Light Snow
7:37 AM 8.6 °F -8.9 °F -0.4 °F 67% 30.02 in 2.0 mi WNW 16.1 mph 23.0 mph 0.00 in Snow Light Snow
7:44 AM 6.8 °F -9.3 °F 1.4 °F 79% 30.02 in 1.2 mi WNW 12.7 mph 24.2 mph 0.00 in Snow Light Snow
7:53 AM 7.0 °F -12.6 °F -0.0 °F 73% 30.07 in 1.0 mi West 19.6 mph 29.9 mph 0.00 in Snow Light Snow
8:03 AM 6.8 °F -11.8 °F -0.4 °F 72% 30.04 in 1.8 mi WNW 17.3 mph 25.3 mph 0.00 in Snow Light Snow
8:13 AM 6.8 °F -12.9 °F -0.4 °F 72% 30.05 in 0.5 mi WNW 19.6 mph 28.8 mph 0.00 in Snow Snow
8:53 AM 6.1 °F -12.2 °F -0.0 °F 76% 30.11 in 0.5 mi West 16.1 mph 28.8 mph 0.00 in Snow Snow
9:01 AM 6.8 °F -11.3 °F -2.2 °F 67% 30.07 in 1.0 mi West 16.1 mph 28.8 mph 0.00 in   Haze
9:11 AM 6.8 °F -13.4 °F -0.4 °F 72% 30.08 in 0.8 mi West 20.7 mph 28.8 mph 0.00 in   Haze
9:19 AM 6.8 °F -11.3 °F -0.4 °F 72% 30.09 in 0.5 mi WNW 16.1 mph 28.8 mph 0.00 in Snow Snow
9:24 AM 6.8 °F -11.8 °F -0.4 °F 72% 30.09 in 1.0 mi West 17.3 mph 25.3 mph 0.00 in Snow Light Snow
9:30 AM 6.8 °F -12.4 °F -0.4 °F 72% 30.10 in 0.8 mi West 18.4 mph 24.2 mph 0.00 in Snow Light Snow
9:43 AM 6.8 °F -12.4 °F -0.4 °F 72% 30.10 in 1.0 mi West 18.4 mph 26.5 mph 0.00 in   Haze
9:53 AM 6.1 °F -12.2 °F -2.0 °F 69% 30.15 in 1.5 mi West 16.1 mph - 0.00 in   Haze
10:08 AM 6.8 °F -12.4 °F -2.2 °F 67% 30.12 in 1.0 mi West 18.4 mph 24.2 mph 0.00 in Snow Light Snow
10:12 AM 5.0 °F -14.7 °F -0.4 °F 78% 30.11 in 0.5 mi West 18.4 mph 24.2 mph 0.00 in Snow Snow
10:35 AM 5.0 °F -12.3 °F -2.2 °F 72% 30.13 in 1.0 mi WNW 13.8 mph 21.9 mph 0.00 in Snow Light Snow
10:42 AM 5.0 °F -13.6 °F -2.2 °F 72% 30.13 in 0.5 mi West 16.1 mph 23.0 mph 0.00 in Snow Snow
10:53 AM 5.0 °F -13.6 °F 1.0 °F 84% 30.18 in 0.2 mi WNW 16.1 mph 28.8 mph 0.00 in Fog , Snow Light Snow
11:15 AM 5.0 °F -14.7 °F -2.2 °F 72% 30.14 in 1.0 mi West 18.4 mph 24.2 mph 0.00 in Snow Light Snow
11:24 AM 5.0 °F -14.2 °F -2.2 °F 72% 30.14 in 0.5 mi West 17.3 mph 25.3 mph 0.00 in Snow Snow
11:44 AM 5.0 °F -13.0 °F -2.2 °F 72% 30.15 in 1.0 mi West 15.0 mph 24.2 mph 0.00 in Snow Light Snow
11:51 AM 3.2 °F -13.9 °F -2.2 °F 78% 30.15 in 0.5 mi WNW 12.7 mph 21.9 mph 0.00 in Snow Snow
11:53 AM 3.9 °F -13.7 °F -0.9 °F 80% 30.20 in 0.2 mi WNW 13.8 mph 21.9 mph 0.00 in Snow Heavy Snow
12:53 PM 3.9 °F -16.1 °F -2.0 °F 76% 30.21 in 0.8 mi West 18.4 mph 25.3 mph 0.00 in Snow Light Snow
1:04 PM 3.2 °F -18.1 °F -2.2 °F 78% 30.16 in 1.2 mi West 20.7 mph 25.3 mph 0.00 in   Haze
1:07 PM 3.2 °F -18.1 °F -2.2 °F 78% 30.16 in 0.8 mi West 20.7 mph 25.3 mph 0.00 in   Haze
1:15 PM 3.2 °F -17.6 °F -2.2 °F 78% 30.16 in 0.2 mi West 19.6 mph 25.3 mph 0.00 in Snow Heavy Snow
1:29 PM 3.2 °F -16.5 °F -4.0 °F 72% 30.16 in 1.0 mi West 17.3 mph 25.3 mph 0.00 in Snow Light Snow
1:42 PM 3.2 °F -14.6 °F -5.8 °F 66% 30.16 in 2.0 mi WNW 13.8 mph 20.7 mph 0.00 in   Haze
1:53 PM 3.0 °F -16.1 °F -6.0 °F 66% 30.21 in 2.0 mi West 16.1 mph 24.2 mph 0.00 in   Haze
2:00 PM 3.2 °F -15.3 °F -5.8 °F 66% 30.17 in 1.5 mi West 15.0 mph 25.3 mph 0.00 in Snow Light Snow
2:02 PM 3.2 °F -15.9 °F -5.8 °F 66% 30.16 in 0.8 mi West 16.1 mph 25.3 mph 0.00 in Snow Light Snow
2:20 PM 3.2 °F -15.3 °F -2.2 °F 78% 30.17 in 0.5 mi West 15.0 mph 26.5 mph 0.00 in Snow Snow
2:27 PM 3.2 °F -17.1 °F -2.2 °F 78% 30.18 in 1.0 mi West 18.4 mph 25.3 mph 0.00 in Snow Light Snow
2:30 PM 3.2 °F -16.5 °F -2.2 °F 78% 30.18 in 0.5 mi West 17.3 mph 25.3 mph 0.00 in Snow Snow
2:53 PM 3.0 °F -17.3 °F -2.9 °F 76% 30.23 in 0.2 mi West 18.4 mph 25.3 mph 0.00 in Snow Heavy Snow
3:07 PM 3.2 °F -15.9 °F -5.8 °F 66% 30.18 in 1.0 mi West 16.1 mph 23.0 mph 0.00 in   Haze
3:12 PM 3.2 °F -17.1 °F -4.0 °F 72% 30.18 in 0.5 mi WNW 18.4 mph 25.3 mph 0.00 in Snow Snow
3:30 PM 1.4 °F -17.6 °F -0.4 °F 92% 30.19 in 0.2 mi WNW 15.0 mph 25.3 mph 0.00 in Fog , Snow Snow
3:53 PM 1.9 °F -18.1 °F -2.9 °F 80% 30.26 in 0.2 mi WNW 17.3 mph 27.6 mph 0.00 in Snow Heavy Snow
4:15 PM 1.4 °F -18.2 °F -7.6 °F 66% 30.22 in 0.8 mi West 16.1 mph 24.2 mph 0.00 in   Haze
4:36 PM 1.4 °F -19.4 °F -4.0 °F 78% 30.23 in 0.2 mi West 18.4 mph 26.5 mph 0.00 in Snow Heavy Snow
4:47 PM 1.4 °F -18.2 °F -4.0 °F 78% 30.24 in 1.0 mi West 16.1 mph 21.9 mph 0.00 in Snow Light Snow
4:53 PM 1.9 °F -16.9 °F -5.1 °F 72% 30.29 in 0.8 mi WNW 15.0 mph 24.2 mph 0.00 in Snow Light Snow
5:13 PM 1.4 °F -16.9 °F -2.2 °F 85% 30.24 in 0.2 mi WNW 13.8 mph - 0.00 in Snow Heavy Snow
5:32 PM 1.4 °F -16.9 °F -5.8 °F 72% 30.25 in 1.0 mi WNW 13.8 mph 20.7 mph 0.00 in Snow Light Snow
5:40 PM 1.4 °F -18.8 °F -4.0 °F 78% 30.25 in 0.5 mi WNW 17.3 mph 21.9 mph 0.00 in Snow Snow
5:51 PM 1.4 °F -16.1 °F -5.8 °F 72% 30.25 in 1.0 mi WNW 12.7 mph 21.9 mph 0.00 in Snow Light Snow
5:53 PM 1.9 °F -14.7 °F -5.1 °F 72% 30.30 in 1.2 mi WNW 11.5 mph 21.9 mph 0.00 in Snow Light Snow
6:07 PM 1.4 °F -17.6 °F -4.0 °F 78% 30.26 in 0.8 mi WNW 15.0 mph 24.2 mph 0.00 in Snow Light Snow
6:15 PM 1.4 °F -14.5 °F -4.0 °F 78% 30.27 in 1.5 mi WNW 10.4 mph 20.7 mph 0.00 in Snow Light Snow
6:19 PM 1.4 °F -16.1 °F -5.8 °F 72% 30.27 in 3.0 mi WNW 12.7 mph 20.7 mph 0.00 in   Haze
6:26 PM 1.4 °F -16.9 °F -5.8 °F 72% 30.27 in 1.8 mi WNW 13.8 mph 19.6 mph 0.00 in Snow Light Snow
6:43 PM 1.4 °F -13.5 °F -4.0 °F 78% 30.28 in 1.0 mi WNW 9.2 mph 20.7 mph 0.00 in Snow Light Snow
6:53 PM 1.9 °F -17.5 °F -4.0 °F 76% 30.33 in 1.2 mi WNW 16.1 mph 21.9 mph 0.00 in Snow Light Snow
7:08 PM 1.4 °F -16.1 °F -7.6 °F 66% 30.29 in 2.0 mi WNW 12.7 mph 24.2 mph 0.00 in Snow Light Snow
7:11 PM 1.4 °F -17.6 °F -5.8 °F 72% 30.29 in 1.2 mi WNW 15.0 mph 21.9 mph 0.00 in Snow Light Snow
7:18 PM 1.4 °F -18.2 °F -2.2 °F 85% 30.29 in 0.5 mi WNW 16.1 mph 23.0 mph 0.00 in Snow Snow
7:32 PM 1.4 °F -16.9 °F -2.2 °F 85% 30.29 in 1.0 mi WNW 13.8 mph 21.9 mph 0.00 in Snow Light Snow
7:37 PM 1.4 °F -16.1 °F -2.2 °F 85% 30.30 in 2.0 mi West 12.7 mph 19.6 mph 0.00 in Snow Light Snow
7:42 PM 1.4 °F -18.8 °F -4.0 °F 78% 30.30 in 1.2 mi West 17.3 mph 23.0 mph 0.00 in Snow Light Snow
7:47 PM 1.4 °F -19.4 °F -2.2 °F 85% 30.30 in 0.8 mi West 18.4 mph 23.0 mph 0.00 in Snow Light Snow
7:53 PM 1.9 °F -16.9 °F -4.0 °F 76% 30.36 in 1.0 mi WNW 15.0 mph - 0.00 in Snow Light Snow
8:10 PM 1.4 °F -16.9 °F -5.8 °F 72% 30.31 in 1.8 mi West 13.8 mph 21.9 mph 0.00 in Snow Light Snow
8:18 PM 1.4 °F -17.6 °F -2.2 °F 85% 30.31 in 1.0 mi West 15.0 mph 25.3 mph 0.00 in Snow Light Snow
8:39 PM 1.4 °F -16.1 °F -2.2 °F 85% 30.31 in 0.8 mi West 12.7 mph 23.0 mph 0.00 in Snow Light Snow
8:53 PM 1.9 °F -17.5 °F -2.0 °F 83% 30.36 in 1.0 mi West 16.1 mph 24.2 mph 0.00 in Snow Light Snow
8:58 PM 1.4 °F -17.6 °F -2.2 °F 85% 30.31 in 0.5 mi West 15.0 mph 24.2 mph 0.00 in Fog , Snow Snow
9:07 PM 1.4 °F -18.8 °F -2.2 °F 85% 30.31 in 0.8 mi WNW 17.3 mph 21.9 mph 0.00 in Snow Light Snow
9:16 PM 1.4 °F -16.9 °F -2.2 °F 85% 30.32 in 1.5 mi West 13.8 mph - 0.00 in Snow Light Snow
9:53 PM 3.0 °F -14.1 °F -2.9 °F 76% 30.37 in 2.5 mi West 12.7 mph 20.7 mph 0.00 in Snow Light Snow
10:08 PM 3.2 °F -13.9 °F -2.2 °F 78% 30.33 in 1.5 mi WNW 12.7 mph 23.0 mph 0.00 in Snow Light Snow
10:16 PM 3.2 °F -15.3 °F -4.0 °F 72% 30.33 in 3.0 mi West 15.0 mph 21.9 mph 0.00 in   Haze
10:39 PM 3.2 °F -14.6 °F -2.2 °F 78% 30.33 in 2.0 mi WNW 13.8 mph 18.4 mph 0.00 in Snow Light Snow
10:53 PM 3.0 °F -13.3 °F -2.9 °F 76% 30.39 in 2.5 mi West 11.5 mph - 0.00 in Snow Light Snow
11:01 PM 3.2 °F -11.3 °F -4.0 °F 72% 30.34 in 5.0 mi West 9.2 mph - 0.00 in Snow Light Snow
11:12 PM 3.2 °F -14.6 °F -2.2 °F 78% 30.34 in 2.5 mi West 13.8 mph - 0.00 in Snow Light Snow
11:16 PM 3.2 °F -14.6 °F -2.2 °F 78% 30.34 in 1.2 mi WNW 13.8 mph - 0.00 in Snow Light Snow
11:27 PM 3.2 °F -14.6 °F -2.2 °F 78% 30.34 in 2.5 mi West 13.8 mph - 0.00 in Snow Light Snow
11:35 PM 3.2 °F -13.9 °F -2.2 °F 78% 30.34 in 3.0 mi West 12.7 mph 21.9 mph 0.00 in Snow Light Snow
11:49 PM 3.2 °F -13.9 °F -4.0 °F 72% 30.34 in 5.0 mi West 12.7 mph - 0.00 in   Haze
11:53 PM 3.0 °F -13.3 °F -2.9 °F 76% 30.39 in 1.8 mi WNW 11.5 mph - 0.00 in Snow Light Snow